Colin Cochran

Log

Date Distance Time Pace Comments Action
01/12/21 2,051m 10:07.0 2:27.9

Mind over Matter

View workout
01/10/21 5,237m 24:00.0 2:17.4 View workout
01/06/21 4,211m 18:00.0 2:08.2 View workout
01/06/21 42m 0:12.3 2:26.4 View workout
01/06/21 1,163m 6:18.3 2:42.6 View workout
01/05/21 4,137m 18:00.0 2:10.5 View workout
01/03/21 5,629m 25:47.2 2:17.4

Ladder Sprints

View workout
01/01/21 6,328m 30:00.0 2:22.2 View workout
12/28/20 6,000m 26:57.9 2:14.8 View workout
12/28/20 525m 2:58.2 2:49.7 View workout
12/25/20 5,013m 23:02.4 2:17.8 View workout
12/17/20 4,497m 20:41.5 2:18.0 View workout
12/17/20 4,303m 19:59.5 2:19.3

2 x 10 MINUTE INTERVALS

View workout
12/15/20 2,500m 11:00.5 2:12.1 View workout
12/15/20 2,273m 9:59.9 2:11.9

LOW STROKE RATE PYRAMID

View workout
12/14/20 3,796m 15:49.6 2:05.0

Flip the switch

View workout
12/12/20 3,392m 15:00.0 2:12.6

GIFU

View workout
12/10/20 4,492m 20:43.3 2:18.3 View workout
12/10/20 170m 0:46.5 2:16.7

HIGH STROKE RATE LADDER

View workout
12/10/20 4,041m 18:04.6 2:14.1

POZNAN

View workout